Tracking 30734 objects as of 25-Jun-2025
HD Live streaming from Space Station
objects crossing your sky now

STARLINK-32360

Track STARLINK-32360 now!
10-day predictions
STARLINK-32360 is classified as:


NORAD ID: 61007
Int'l Code: 2024-158T
Perigee: 481.5 km
Apogee: 483.3 km
Inclination: 53.2 °
Period: 94.1 minutes
Semi major axis: 6853 km
RCS: Unknown
Launch date: September 5, 2024
Source: United States (US)
Launch site: AIR FORCE EASTERN TEST RANGE (AFETR)
Your satellite tracking list
Your tracking list is empty




NASA's NSSDC Master Catalog

Two Line Element Set (TLE):
1 61007U 24158T   25175.90696754  .00000539  00000-0  30339-4 0  9999
2 61007  53.1587 167.6078 0001312  80.3606 279.7543 15.30188350 46326
Source of the keplerian elements: AFSPC